This is the latest recevied weather packets stored in our database for station/object K7AEL. If no packets are shown the sender has not sent any weather packets the latest 1 day(s).
| Time | Temp. | Humidity | Pressure | Rain* | Wind** | Luminosity | Snow |
|---|---|---|---|---|---|---|---|
| 1777977398 | 14.44° C | 92% | 1012.6 hPa | 0 mm | 1.79 m/s, 164° | 0 W/m² | - |
| 1777977096 | 15° C | 92% | 1012.7 hPa | 0 mm | 3.13 m/s, 136° | 0 W/m² | - |
| 1777976794 | 15° C | 92% | 1013 hPa | 1.27 mm | 0.89 m/s, 182° | 0 W/m² | - |
| 1777976491 | 15° C | 92% | 1012.8 hPa | 3.05 mm | 1.34 m/s, 104° | 0 W/m² | - |
| 1777976190 | 15° C | 91% | 1013.3 hPa | 1.78 mm | 1.34 m/s, 158° | 0 W/m² | - |
| 1777975886 | 15° C | 90% | 1013.7 hPa | 0 mm | 2.68 m/s, 111° | 0 W/m² | - |
| 1777975582 | 15° C | 90% | 1013.9 hPa | 0 mm | 0.89 m/s, 140° | 0 W/m² | - |
| 1777975279 | 15° C | 90% | 1013.8 hPa | 0 mm | 3.13 m/s, 144° | 0 W/m² | - |
| 1777974975 | 15° C | 89% | 1013.5 hPa | 0 mm | 1.79 m/s, 122° | 0 W/m² | - |
| 1777974672 | 15° C | 90% | 1013.5 hPa | 0 mm | 1.79 m/s, 106° | 0 W/m² | - |
| 1777974368 | 15° C | 91% | 1013.3 hPa | 0 mm | 3.13 m/s, 124° | 0 W/m² | - |
| 1777974065 | 15° C | 92% | 1013.3 hPa | 1.78 mm | 3.13 m/s, 97° | 0 W/m² | - |
| 1777973761 | 15° C | 92% | 1013.3 hPa | 1.78 mm | 3.58 m/s, 132° | 0 W/m² | - |
| 1777973458 | 15° C | 92% | 1013.4 hPa | 0 mm | 1.79 m/s, 82° | 0 W/m² | - |
| 1777973156 | 15° C | 92% | 1013.6 hPa | 0 mm | 1.34 m/s, 123° | 0 W/m² | - |
| 1777972854 | 15° C | 92% | 1013.7 hPa | 0 mm | 1.34 m/s, 135° | 0 W/m² | - |
| 1777972550 | 15° C | 92% | 1013.6 hPa | 0 mm | 0.89 m/s, 180° | 0 W/m² | - |
| 1777972249 | 15° C | 92% | 1013.8 hPa | 0 mm | 0.89 m/s, 170° | 0 W/m² | - |
| 1777971947 | 14.44° C | 92% | 1013.9 hPa | 0 mm | 1.79 m/s, 148° | 0 W/m² | - |
| 1777971644 | 15° C | 93% | 1013.5 hPa | 0 mm | 1.79 m/s, 92° | 0 W/m² | - |
| 1777971342 | 15° C | 93% | 1013.6 hPa | 0 mm | 0.89 m/s, 115° | 0 W/m² | - |
| 1777971040 | 14.44° C | 94% | 1013.8 hPa | 0 mm | 1.79 m/s, 189° | 0 W/m² | - |
| 1777970738 | 15° C | 94% | 1014 hPa | 1.27 mm | 0.89 m/s, 126° | 0 W/m² | - |
| 1777970436 | 14.44° C | 94% | 1014 hPa | 1.27 mm | 0.89 m/s, 136° | 0 W/m² | - |
| 1777970132 | 15° C | 94% | 1013.9 hPa | 1.78 mm | 0.89 m/s, 155° | 0 W/m² | - |
* Rain latest hour (hover to see other rain measurements)
** Current wind speed in m/s (hover to see current wind gust speed)